Starlink 1560

operational
NORAD ID: 46036 Int'l Des: 2020-055 Owner: SPXS Country: US Constellation: starlink
LEOCIRCULARSTARLINK_TYPE

About Starlink 1560

Description loading...

Live Position

Loading 3D Globe...

Upcoming Passes

Altitude History

Altitude vs Time

uPlot chart will show altitude changes over time

Two-Line Element Set

1 46036U 20055K 25350.73262751 .00000224 00000-0 33924-4 0 9992
2 46036 53.0546 139.0289 0001305 80.6483 279.4653 15.06392952296391
Epoch: Dec 16, 2025 • Age: 17 hours

Current Status

Altitude 564.1 km
Velocity 7.58 km/s
Sub-Earth Point -47.02°S, 124.02°E
Launch Date Aug 7, 2020
Age 5.3 years
Type internet

Technical Details

Classification Payload
Mass 260.00 kg
Dry Mass 248.00 kg
Total Mass 260.00 kg
Length 0.20 m
Diameter 2.80 m
Span 9.00 m
Shape Box + pan
Manufacturer SPXS
Bus Type Starlink
Phase Status In Orbit
Owner/State SPXS/US

Large Constellations

Loading constellations...